Location: Castro Valley
(37.6940°N, 122.0850°W)
Time: 21:07:03
(UTC-08:00)

PANSAT - Visible Passes

Search period start: 22 February 2017 00:00
Search period end: 04 March 2017 00:00
Orbit: 477 x 485 km, 28.5° (Epoch: 22 February)

Date Brightness Start Highest point End Pass type
(mag) Time Alt. Az. Time Alt. Az. Time Alt. Az.
25 Feb 10.0 19:56:07 10° SW 19:57:16 15° SSW 19:57:16 15° SSW visible
26 Feb 9.4 19:26:44 10° SW 19:29:21 18° S 19:29:40 18° SSE visible
27 Feb 9.5 18:57:22 10° SW 18:59:59 18° S 19:02:03 12° SE visible
28 Feb 9.6 18:28:00 10° SW 18:30:37 18° S 18:33:16 10° SE visible
28 Feb 9.9 20:07:10 10° SW 20:08:34 16° SSW 20:08:34 16° SSW visible
01 Mar 9.4 19:37:48 10° SW 19:40:34 19° S 19:40:56 19° S visible
02 Mar 9.6 19:08:26 10° SW 19:11:12 19° S 19:13:18 13° SE visible
03 Mar 9.6 18:39:04 10° SW 18:41:50 19° S 18:44:36 10° SE visible
